TimeCDT,TemperatureF,Dew PointF,Humidity,Sea Level PressureIn,VisibilityMPH,Wind Direction,Wind SpeedMPH,Gust SpeedMPH,PrecipitationIn,Events,Conditions,WindDirDegrees,DateUTC
12:11 AM,62.6,46.4,55,29.91,10.0,WNW,6.9,-,N/A,,Clear,300,2013-06-16 05:11:00
12:31 AM,62.6,46.4,55,29.90,10.0,WNW,6.9,-,N/A,,Clear,290,2013-06-16 05:31:00
12:51 AM,62.6,46.4,55,29.90,10.0,West,6.9,-,N/A,,Clear,280,2013-06-16 05:51:00
1:11 AM,62.6,46.4,55,29.90,10.0,West,6.9,-,N/A,,Clear,280,2013-06-16 06:11:00
1:31 AM,62.6,48.2,59,29.90,10.0,West,6.9,-,N/A,,Clear,280,2013-06-16 06:31:00
1:51 AM,60.8,48.2,63,29.91,10.0,West,4.6,-,N/A,,Clear,280,2013-06-16 06:51:00
2:11 AM,60.8,48.2,63,29.90,10.0,West,5.8,-,N/A,,Clear,280,2013-06-16 07:11:00
2:31 AM,59.0,48.2,67,29.90,10.0,West,3.5,-,N/A,,Clear,270,2013-06-16 07:31:00
2:51 AM,59.0,48.2,67,29.91,10.0,West,4.6,-,N/A,,Clear,270,2013-06-16 07:51:00
3:11 AM,57.2,48.2,72,29.90,10.0,West,4.6,-,N/A,,Clear,280,2013-06-16 08:11:00
3:31 AM,57.2,48.2,72,29.90,10.0,West,3.5,-,N/A,,Clear,280,2013-06-16 08:31:00
3:51 AM,57.2,48.2,72,29.90,10.0,West,4.6,-,N/A,,Clear,270,2013-06-16 08:51:00
4:11 AM,57.2,48.2,72,29.91,10.0,WSW,5.8,-,N/A,,Clear,240,2013-06-16 09:11:00
4:31 AM,55.4,48.2,77,29.91,10.0,West,4.6,-,N/A,,Clear,260,2013-06-16 09:31:00
4:51 AM,57.2,48.2,72,29.91,10.0,West,4.6,-,N/A,,Clear,260,2013-06-16 09:51:00
5:11 AM,57.2,48.2,72,29.92,10.0,West,4.6,-,N/A,,Clear,260,2013-06-16 10:11:00
5:31 AM,57.2,48.2,72,29.92,10.0,WSW,6.9,-,N/A,,Clear,250,2013-06-16 10:31:00
5:51 AM,57.2,48.2,72,29.92,10.0,West,3.5,-,N/A,,Clear,270,2013-06-16 10:51:00
6:11 AM,57.2,48.2,72,29.93,10.0,WSW,5.8,-,N/A,,Clear,250,2013-06-16 11:11:00
6:31 AM,60.8,50.0,68,29.93,10.0,West,3.5,-,N/A,,Clear,260,2013-06-16 11:31:00
6:51 AM,62.6,51.8,68,29.93,10.0,WSW,3.5,-,N/A,,Clear,250,2013-06-16 11:51:00
7:11 AM,64.4,51.8,64,29.93,10.0,WSW,3.5,-,N/A,,Clear,250,2013-06-16 12:11:00
7:31 AM,68.0,51.8,56,29.93,10.0,West,4.6,-,N/A,,Clear,260,2013-06-16 12:31:00
7:51 AM,69.8,51.8,53,29.93,10.0,West,8.1,-,N/A,,Clear,260,2013-06-16 12:51:00
8:11 AM,71.6,51.8,50,29.93,10.0,West,10.4,-,N/A,,Clear,260,2013-06-16 13:11:00
8:31 AM,73.4,50.0,44,29.93,10.0,West,10.4,-,N/A,,Clear,270,2013-06-16 13:31:00
8:51 AM,75.2,48.2,38,29.93,10.0,West,12.7,-,N/A,,Clear,270,2013-06-16 13:51:00
9:11 AM,78.8,50.0,36,29.93,10.0,West,10.4,-,N/A,,Clear,260,2013-06-16 14:11:00
9:30 AM,80.6,48.2,32,29.92,10.0,West,11.5,-,N/A,,Clear,260,2013-06-16 14:30:00
9:51 AM,80.6,48.2,32,29.92,10.0,West,15.0,-,N/A,,Clear,260,2013-06-16 14:51:00
10:11 AM,80.6,46.4,30,29.92,10.0,West,15.0,18.4,N/A,,Clear,260,2013-06-16 15:11:00
10:31 AM,82.4,44.6,26,29.91,10.0,WNW,11.5,-,N/A,,Clear,290,2013-06-16 15:31:00
10:51 AM,82.4,44.6,26,29.91,10.0,West,12.7,20.7,N/A,,Clear,260,2013-06-16 15:51:00
11:11 AM,84.2,44.6,25,29.90,10.0,West,13.8,21.9,N/A,,Clear,260,2013-06-16 16:11:00
11:31 AM,84.2,44.6,25,29.90,10.0,West,13.8,23.0,N/A,,Clear,280,2013-06-16 16:31:00
11:51 AM,84.2,42.8,23,29.90,10.0,West,11.5,21.9,N/A,,Clear,260,2013-06-16 16:51:00
12:11 PM,84.2,42.8,23,29.89,10.0,WNW,19.6,25.3,N/A,,Clear,290,2013-06-16 17:11:00
12:31 PM,86.0,42.8,22,29.89,10.0,WNW,15.0,26.5,N/A,,Clear,290,2013-06-16 17:31:00
12:51 PM,86.0,42.8,22,29.89,10.0,WNW,17.3,23.0,N/A,,Clear,290,2013-06-16 17:51:00
1:11 PM,86.0,44.6,23,29.89,10.0,West,13.8,24.2,N/A,,Scattered Clouds,260,2013-06-16 18:11:00
1:31 PM,87.8,44.6,22,29.89,10.0,West,17.3,26.5,N/A,,Clear,280,2013-06-16 18:31:00
1:51 PM,86.0,48.2,27,29.89,10.0,North,-9999.0,-,N/A,,Clear,0,2013-06-16 18:51:00
2:11 PM,86.0,48.2,27,29.89,10.0,West,24.2,32.2,N/A,,Clear,270,2013-06-16 19:11:00
2:31 PM,86.0,48.2,27,29.88,10.0,West,20.7,26.5,N/A,,Clear,280,2013-06-16 19:31:00
2:51 PM,86.0,50.0,29,29.88,10.0,West,18.4,28.8,N/A,,Clear,270,2013-06-16 19:51:00
3:11 PM,82.4,48.2,30,29.87,10.0,West,15.0,21.9,N/A,,Scattered Clouds,270,2013-06-16 20:11:00
3:31 PM,75.2,55.4,50,29.87,7.0,West,11.5,36.8,0.07,Rain-Thunderstorm,Light Thunderstorms and Rain,270,2013-06-16 20:31:00
3:51 PM,75.2,57.2,53,29.88,10.0,WSW,11.5,29.9,0.08,Rain,Light Rain,250,2013-06-16 20:51:00
4:11 PM,68.0,55.4,64,-9999,10.0,WSW,27.6,48.3,N/A,,Mostly Cloudy,240,2013-06-16 21:11:00
4:31 PM,69.8,60.8,73,29.89,10.0,WSW,19.6,26.5,0.03,Rain,Light Rain,240,2013-06-16 21:31:00
4:51 PM,75.2,60.8,61,29.89,10.0,WSW,17.3,26.5,0.03,,Clear,240,2013-06-16 21:51:00
5:11 PM,73.4,57.2,57,29.89,10.0,WSW,10.4,-,N/A,,Scattered Clouds,240,2013-06-16 22:11:00
5:31 PM,75.2,57.2,53,29.88,10.0,WSW,13.8,20.7,N/A,,Clear,250,2013-06-16 22:31:00
5:51 PM,78.8,57.2,47,29.86,10.0,WSW,18.4,23.0,N/A,,Clear,250,2013-06-16 22:51:00
6:11 PM,78.8,57.2,47,29.86,10.0,WSW,19.6,25.3,N/A,,Clear,240,2013-06-16 23:11:00
6:31 PM,78.8,55.4,44,29.85,10.0,WSW,17.3,28.8,N/A,,Clear,240,2013-06-16 23:31:00
6:51 PM,78.8,53.6,42,29.85,10.0,WSW,19.6,29.9,N/A,,Clear,240,2013-06-16 23:51:00
7:11 PM,78.8,55.4,44,29.85,10.0,SW,15.0,24.2,N/A,,Clear,230,2013-06-17 00:11:00
7:31 PM,78.8,55.4,44,29.85,10.0,SW,11.5,-,N/A,,Clear,230,2013-06-17 00:31:00
7:51 PM,77.0,55.4,47,29.85,10.0,WSW,10.4,-,N/A,,Clear,240,2013-06-17 00:51:00
8:11 PM,75.2,57.2,53,29.85,10.0,WSW,11.5,-,N/A,,Clear,250,2013-06-17 01:11:00
8:31 PM,75.2,57.2,53,29.85,10.0,WSW,9.2,-,N/A,,Clear,250,2013-06-17 01:31:00
8:51 PM,73.4,57.2,57,29.85,10.0,WSW,9.2,-,N/A,,Clear,250,2013-06-17 01:51:00
9:11 PM,71.6,57.2,60,29.86,10.0,WSW,10.4,-,N/A,,Clear,250,2013-06-17 02:11:00
9:31 PM,69.8,59.0,68,29.86,10.0,West,9.2,-,N/A,,Clear,260,2013-06-17 02:31:00
9:51 PM,69.8,57.2,64,29.88,10.0,West,10.4,-,N/A,,Clear,260,2013-06-17 02:51:00
10:11 PM,69.8,57.2,64,29.89,10.0,West,6.9,-,N/A,,Clear,270,2013-06-17 03:11:00
10:31 PM,66.2,57.2,73,29.90,10.0,WNW,5.8,-,N/A,,Clear,290,2013-06-17 03:31:00
10:51 PM,64.4,57.2,77,29.90,10.0,WNW,5.8,-,N/A,,Clear,300,2013-06-17 03:51:00
11:11 PM,64.4,57.2,77,29.90,10.0,WNW,5.8,-,N/A,,Clear,300,2013-06-17 04:11:00
11:31 PM,64.4,55.4,73,29.90,10.0,NW,5.8,-,N/A,,Clear,320,2013-06-17 04:31:00
11:51 PM,66.2,53.6,64,29.90,10.0,NNW,8.1,-,N/A,,Clear,340,2013-06-17 04:51:00